Location: Unspecified
(0.0000°N, 0.0000°E)
Time: 00:00:32
(UTC+00:00)

Vanguard 1 - Visible Passes

Search period start: 20 November 2019 00:00
Search period end: 30 November 2019 00:00
Orbit: 652 x 3831 km, 34.2° (Epoch: 18 November)

Date Brightness Start Highest point End Pass type
(mag) Time Alt. Az. Time Alt. Az. Time Alt. Az.
20 Nov 14.1 00:25:41 10° SSW 00:37:11 18° S 00:50:47 10° SE visible
20 Nov 13.9 02:51:16 10° SSW 03:10:52 33° SSE 03:28:27 10° E visible
20 Nov 13.0 05:16:48 10° SW 05:40:12 71° SE 05:55:11 10° ENE visible
20 Nov 12.2 19:54:26 10° W 20:01:02 34° SSW 20:12:09 10° SE visible
20 Nov 13.7 22:20:23 10° SW 22:28:05 17° S 22:38:20 10° SSE visible
21 Nov 14.1 00:47:58 10° SSW 01:00:59 20° SSE 01:15:54 10° SE visible
21 Nov 13.7 03:12:29 10° SW 03:33:36 40° SSE 03:51:34 10° E visible
21 Nov 12.7 20:16:31 10° WSW 20:22:58 25° SSW 20:33:03 10° SSE visible
21 Nov 13.8 22:43:49 10° SSW 22:51:18 15° S 23:00:47 10° SSE visible
22 Nov 14.1 01:09:41 10° SSW 01:24:35 23° SSE 01:41:04 10° ESE visible
22 Nov 13.5 03:33:40 10° SW 03:56:02 49° SSE 04:14:08 10° ENE visible
22 Nov 10.8 18:16:00 10° WNW 18:21:17 58° SSW 18:30:17 10° SE visible
22 Nov 13.1 20:39:08 10° WSW 20:45:11 19° SSW 20:53:50 10° SSE visible
22 Nov 13.9 23:06:55 10° SSW 23:14:46 15° S 23:24:25 10° SE visible
23 Nov 14.0 01:31:00 10° SSW 01:47:50 27° SSE 02:05:47 10° ESE visible
23 Nov 13.3 03:54:53 10° SW 04:18:11 60° SE 04:36:13 10° ENE visible
23 Nov 11.7 18:37:23 10° W 18:42:40 37° SSW 18:51:18 10° SE visible
23 Nov 13.4 21:02:21 10° SW 21:07:40 15° S 21:14:38 10° SSE visible
23 Nov 14.0 23:29:17 10° SSW 23:38:20 16° SSE 23:49:24 10° SE visible
24 Nov 13.8 01:52:07 10° SSW 02:10:43 34° SSE 02:29:50 10° E visible
24 Nov 13.0 04:16:12 10° SW 04:40:06 73° SE 04:57:54 10° ENE visible
24 Nov 12.3 18:59:13 10° WSW 19:04:18 25° SSW 19:12:01 10° SSE visible
24 Nov 13.6 21:26:08 10° SSW 21:30:26 12° S 21:35:36 10° SSE visible
24 Nov 14.0 23:50:55 10° SSW 00:01:50 18° SSE 00:15:08 10° SE visible
25 Nov 13.6 02:13:07 10° SSW 02:33:16 41° SSE 02:53:11 10° E visible
25 Nov 12.8 04:37:43 10° SW 05:01:49 88° SE 05:19:15 10° NE visible
25 Nov 12.8 19:21:38 10° WSW 19:26:10 18° SSW 19:32:26 10° SSE visible
25 Nov 13.8 21:50:02 10° SSW 21:53:28 11° S 21:57:21 10° SSE visible
26 Nov 13.9 00:12:06 10° SSW 00:25:05 22° SSE 00:40:50 10° ESE visible
26 Nov 13.4 02:34:07 10° SW 02:55:32 51° SE 03:15:54 10° ENE visible
26 Nov 12.8 04:59:30 10° WSW 05:23:25 77° NW 05:40:20 10° NE visible
26 Nov 13.2 19:44:56 10° SW 19:48:17 13° SSW 19:52:23 10° SSE visible
26 Nov 13.9 22:12:44 10° S 22:16:41 11° S 22:21:11 10° SSE visible
27 Nov 13.8 00:33:01 10° SSW 00:48:01 27° SSE 01:05:58 10° ESE visible
27 Nov 13.2 02:55:11 10° SW 03:17:34 62° SE 03:38:07 10° ENE visible
27 Nov 12.8 05:21:40 10° WSW 05:44:55 63° NW 06:01:13 10° NE visible
27 Nov 13.9 22:34:00 10° S 22:39:57 13° SSE 22:47:02 10° SE visible
28 Nov 13.7 00:53:49 10° SSW 01:10:36 33° SSE 01:30:19 10° E visible
28 Nov 13.0 03:16:23 10° SW 03:39:25 75° SE 03:59:54 10° ENE visible
28 Nov 12.5 18:04:15 10° WSW 18:07:52 18° SSW 18:12:35 10° SSE visible
28 Nov 13.9 22:54:43 10° S 23:03:06 16° SSE 23:13:33 10° SE visible
29 Nov 13.5 01:14:36 10° SSW 01:32:52 42° SE 01:53:55 10° E visible
29 Nov 12.8 03:37:46 10° SW 04:01:10 90° SE 04:21:21 10° NE visible
29 Nov 12.9 18:27:40 10° SW 18:29:38 11° SSW 18:31:53 10° S visible
29 Nov 13.8 23:15:15 10° SSW 23:26:00 20° SSE 23:39:48 10° ESE visible
